^^
Station Historical Data
Daily Summary for February 1, 2021 Units:  English    Metric   Both
Daily Weekly Monthly Yearly
  High: Low: Average:
Temperature: 30.5 °F 22.8 °F 26.3 °F
Dew Point: 24.1 °F 17.6 °F 20.7 °F
Humidity: 85% 74% 79%
Wind Speed: 6mph 2mph 4.3mph
Wind Gust: 13mph - -
Wind- - ESE
Pressure: 30.16 in 30.10 in -
Precipitation: 0.00 in    
 
 
Tabular Data for February 1, 2021
Time Temperature Dew Point Pressure Wind Wind Speed Wind Gust Humidity Rainfall Rate (Hourly) solar
00:00 24.7 °F 17.9 °F 30.10 in East 2 mph 2 mph 75% 0.00 in 0 W/m2
00:05 24.7 °F 17.9 °F 30.10 in NE 2 mph 3 mph 75% 0.00 in 0 W/m2
00:10 24.8 °F 18 °F 30.10 in ENE 3 mph 3 mph 75% 0.00 in 0 W/m2
00:15 24.9 °F 18.1 °F 30.10 in ENE 3 mph 4 mph 75% 0.00 in 0 W/m2
00:20 25.1 °F 18.3 °F 30.10 in ENE 4 mph 4 mph 75% 0.00 in 0 W/m2
00:25 25.3 °F 18.2 °F 30.10 in NE 4 mph 4 mph 74% 0.00 in 0 W/m2
00:30 25.4 °F 18.3 °F 30.10 in NE 5 mph 5 mph 74% 0.00 in 0 W/m2
00:35 25.4 °F 18.3 °F 30.10 in ENE 4 mph 5 mph 74% 0.00 in 0 W/m2
00:40 25.4 °F 18.3 °F 30.10 in NE 4 mph 7 mph 74% 0.00 in 0 W/m2
00:45 25.4 °F 18.3 °F 30.10 in ENE 3 mph 7 mph 74% 0.00 in 0 W/m2
00:50 25.4 °F 18.3 °F 30.10 in ESE 3 mph 3 mph 74% 0.00 in 0 W/m2
00:55 25.4 °F 18.3 °F 30.10 in East 3 mph 3 mph 74% 0.00 in 0 W/m2
01:00 25.4 °F 18.3 °F 30.11 in NE 3 mph 4 mph 74% 0.00 in 0 W/m2
01:05 25.3 °F 18.2 °F 30.11 in East 3 mph 4 mph 74% 0.00 in 0 W/m2
01:10 25.3 °F 18.2 °F 30.11 in East 3 mph 3 mph 74% 0.00 in 0 W/m2
01:15 25.3 °F 18.2 °F 30.10 in ENE 3 mph 3 mph 74% 0.00 in 0 W/m2
01:20 25.3 °F 18.2 °F 30.11 in ENE 3 mph 3 mph 74% 0.00 in 0 W/m2
01:25 25.2 °F 18.1 °F 30.11 in ENE 3 mph 3 mph 74% 0.00 in 0 W/m2
01:30 25.2 °F 18.1 °F 30.11 in ENE 2 mph 2 mph 74% 0.00 in 0 W/m2
01:35 25.2 °F 18.1 °F 30.11 in East 2 mph 3 mph 74% 0.00 in 0 W/m2
01:40 25.1 °F 18 °F 30.11 in ENE 2 mph 2 mph 74% 0.00 in 0 W/m2
01:45 25.1 °F 18.3 °F 30.11 in East 2 mph 2 mph 75% 0.00 in 0 W/m2
01:50 25.1 °F 18.3 °F 30.11 in East 3 mph 3 mph 75% 0.00 in 0 W/m2
01:55 25 °F 18.2 °F 30.11 in ENE 3 mph 3 mph 75% 0.00 in 0 W/m2
02:00 25 °F 18.2 °F 30.11 in ESE 3 mph 3 mph 75% 0.00 in 0 W/m2
02:05 24.9 °F 18.1 °F 30.11 in East 3 mph 3 mph 75% 0.00 in 0 W/m2
02:10 24.9 °F 18.1 °F 30.11 in East 3 mph 3 mph 75% 0.00 in 0 W/m2
02:15 24.8 °F 18.3 °F 30.11 in ENE 2 mph 4 mph 76% 0.00 in 0 W/m2
02:20 24.7 °F 18.2 °F 30.11 in ENE 2 mph 3 mph 76% 0.00 in 0 W/m2
02:25 24.7 °F 18.2 °F 30.11 in NE 2 mph 3 mph 76% 0.00 in 0 W/m2
02:30 24.7 °F 18.2 °F 30.11 in ENE 2 mph 2 mph 76% 0.00 in 0 W/m2
02:35 24.6 °F 18.4 °F 30.11 in ENE 2 mph 2 mph 77% 0.00 in 0 W/m2
02:40 24.6 °F 18.4 °F 30.11 in ESE 2 mph 2 mph 77% 0.00 in 0 W/m2
02:45 24.6 °F 18.4 °F 30.11 in NE 3 mph 3 mph 77% 0.00 in 0 W/m2
02:50 24.8 °F 18.9 °F 30.11 in ENE 3 mph 3 mph 78% 0.00 in 0 W/m2
02:55 24.9 °F 19 °F 30.11 in ENE 4 mph 4 mph 78% 0.00 in 0 W/m2
03:00 25.2 °F 19.3 °F 30.11 in ENE 5 mph 5 mph 78% 0.00 in 0 W/m2
03:05 25.7 °F 19.5 °F 30.11 in ENE 5 mph 8 mph 77% 0.00 in 0 W/m2
03:10 26.1 °F 19.6 °F 30.11 in NE 5 mph 7 mph 76% 0.00 in 0 W/m2
03:15 26.3 °F 19.8 °F 30.11 in ENE 5 mph 7 mph 76% 0.00 in 0 W/m2
03:20 26.3 °F 20.1 °F 30.11 in ENE 4 mph 5 mph 77% 0.00 in 0 W/m2
03:25 26.4 °F 20.2 °F 30.11 in ENE 4 mph 5 mph 77% 0.00 in 0 W/m2
03:30 26.5 °F 20 °F 30.11 in NE 5 mph 6 mph 76% 0.00 in 0 W/m2
03:35 26.6 °F 20.1 °F 30.11 in ENE 4 mph 6 mph 76% 0.00 in 0 W/m2
03:40 26.6 °F 19.7 °F 30.11 in NE 4 mph 4 mph 75% 0.00 in 0 W/m2
03:45 26.6 °F 19.7 °F 30.11 in ENE 4 mph 4 mph 75% 0.00 in 0 W/m2
03:50 26.6 °F 19.7 °F 30.11 in ENE 4 mph 4 mph 75% 0.00 in 0 W/m2
03:55 26.6 °F 19.7 °F 30.11 in East 4 mph 4 mph 75% 0.00 in 0 W/m2
04:00 26.7 °F 20.1 °F 30.11 in East 5 mph 5 mph 76% 0.00 in 0 W/m2
04:05 26.7 °F 19.8 °F 30.11 in ENE 5 mph 5 mph 75% 0.00 in 0 W/m2
04:10 26.7 °F 19.8 °F 30.11 in East 4 mph 4 mph 75% 0.00 in 0 W/m2
04:15 26.7 °F 20.1 °F 30.11 in ENE 4 mph 4 mph 76% 0.00 in 0 W/m2
04:20 26.7 °F 20.1 °F 30.11 in ESE 4 mph 4 mph 76% 0.00 in 0 W/m2
04:25 26.6 °F 20.1 °F 30.11 in ENE 4 mph 5 mph 76% 0.00 in 0 W/m2
04:30 26.7 °F 20.1 °F 30.11 in ENE 4 mph 4 mph 76% 0.00 in 0 W/m2
04:35 26.7 °F 20.1 °F 30.11 in NE 4 mph 4 mph 76% 0.00 in 0 W/m2
04:40 26.7 °F 20.5 °F 30.11 in NE 4 mph 5 mph 77% 0.00 in 0 W/m2
04:45 26.7 °F 20.5 °F 30.11 in East 4 mph 5 mph 77% 0.00 in 0 W/m2
04:50 26.7 °F 20.5 °F 30.11 in East 4 mph 7 mph 77% 0.00 in 0 W/m2
04:55 26.7 °F 20.5 °F 30.12 in ENE 4 mph 7 mph 77% 0.00 in 0 W/m2
05:00 26.8 °F 20.9 °F 30.12 in ENE 4 mph 4 mph 78% 0.00 in 0 W/m2
05:05 26.9 °F 21 °F 30.12 in ENE 4 mph 4 mph 78% 0.00 in 0 W/m2
05:10 27 °F 21.4 °F 30.12 in ENE 4 mph 6 mph 79% 0.00 in 0 W/m2
05:15 27.1 °F 21.5 °F 30.12 in ENE 5 mph 6 mph 79% 0.00 in 0 W/m2
05:20 27.2 °F 21.5 °F 30.12 in East 5 mph 7 mph 79% 0.00 in 0 W/m2
05:25 27.2 °F 21.5 °F 30.12 in East 5 mph 7 mph 79% 0.00 in 0 W/m2
05:30 27.3 °F 21.6 °F 30.12 in ENE 5 mph 5 mph 79% 0.00 in 0 W/m2
05:35 27.3 °F 21.3 °F 30.12 in NE 5 mph 5 mph 78% 0.00 in 0 W/m2
05:40 27.4 °F 21.7 °F 30.12 in ENE 5 mph 5 mph 79% 0.00 in 0 W/m2
05:45 27.4 °F 21.7 °F 30.12 in East 5 mph 5 mph 79% 0.00 in 0 W/m2
05:50 27.4 °F 21.7 °F 30.12 in ENE 5 mph 7 mph 79% 0.00 in 0 W/m2
05:55 27.4 °F 21.7 °F 30.12 in NE 6 mph 7 mph 79% 0.00 in 0 W/m2
06:00 27.4 °F 21.7 °F 30.12 in North 6 mph 7 mph 79% 0.00 in 0 W/m2
06:05 27.4 °F 21.7 °F 30.12 in NE 5 mph 7 mph 79% 0.00 in 0 W/m2
06:10 27.3 °F 21.6 °F 30.12 in NE 4 mph 7 mph 79% 0.00 in 0 W/m2
06:15 27.2 °F 21.2 °F 30.12 in NNE 4 mph 7 mph 78% 0.00 in 0 W/m2
06:20 27.2 °F 21.2 °F 30.12 in NNE 4 mph 4 mph 78% 0.00 in 0 W/m2
06:25 27.2 °F 21.5 °F 30.12 in NE 4 mph 4 mph 79% 0.00 in 0 W/m2
06:30 27.2 °F 21.5 °F 30.12 in ENE 4 mph 4 mph 79% 0.00 in 0 W/m2
06:35 27.2 °F 21.5 °F 30.12 in NNE 4 mph 4 mph 79% 0.00 in 0 W/m2
06:40 27.3 °F 21.6 °F 30.12 in ENE 4 mph 4 mph 79% 0.00 in 0 W/m2
06:45 27.3 °F 21.6 °F 30.12 in North 4 mph 5 mph 79% 0.00 in 0 W/m2
06:50 27.4 °F 21.7 °F 30.13 in North 4 mph 4 mph 79% 0.00 in 0 W/m2
06:55 27.4 °F 22 °F 30.13 in North 3 mph 9 mph 80% 0.00 in 0 W/m2
07:00 27.3 °F 21.9 °F 30.13 in NNE 3 mph 3 mph 80% 0.00 in 0 W/m2
07:05 27.3 °F 21.9 °F 30.13 in ENE 4 mph 4 mph 80% 0.00 in 0 W/m2
07:10 27.3 °F 21.6 °F 30.13 in North 4 mph 5 mph 79% 0.00 in 0 W/m2
07:15 27.2 °F 21.5 °F 30.13 in NE 4 mph 5 mph 79% 0.00 in 0 W/m2
07:20 27.2 °F 21.5 °F 30.13 in ENE 5 mph 5 mph 79% 0.00 in 0 W/m2
07:25 27.1 °F 21.5 °F 30.13 in NNE 4 mph 5 mph 79% 0.00 in 0 W/m2
07:30 27.1 °F 21.5 °F 30.13 in North 3 mph 3 mph 79% 0.00 in 0 W/m2
07:35 27 °F 21.7 °F 30.13 in North 3 mph 9 mph 80% 0.00 in 0 W/m2
07:40 26.9 °F 21.6 °F 30.14 in North 4 mph 4 mph 80% 0.00 in 0 W/m2
07:45 26.8 °F 21.5 °F 30.14 in NNE 4 mph 4 mph 80% 0.00 in 0 W/m2
07:50 26.7 °F 21.1 °F 30.14 in North 4 mph 4 mph 79% 0.00 in 5 W/m2
07:55 26.6 °F 21.3 °F 30.14 in NNE 4 mph 5 mph 80% 0.00 in 9 W/m2
08:00 26.6 °F 21.3 °F 30.14 in NE 5 mph 10 mph 80% 0.00 in 12 W/m2
08:05 26.5 °F 21.2 °F 30.14 in NE 5 mph 10 mph 80% 0.00 in 19 W/m2
08:10 26.5 °F 21.2 °F 30.14 in NNE 4 mph 4 mph 80% 0.00 in 23 W/m2
08:15 26.4 °F 21.1 °F 30.14 in North 4 mph 4 mph 80% 0.00 in 26 W/m2
08:20 26.4 °F 21.1 °F 30.14 in ENE 4 mph 4 mph 80% 0.00 in 32 W/m2
08:25 26.4 °F 21.1 °F 30.14 in East 3 mph 4 mph 80% 0.00 in 39 W/m2
08:30 26.4 °F 21.1 °F 30.14 in NNE 4 mph 5 mph 80% 0.00 in 51 W/m2
08:35 26.4 °F 21.1 °F 30.14 in ENE 5 mph 5 mph 80% 0.00 in 58 W/m2
08:40 26.5 °F 21.2 °F 30.14 in NNE 4 mph 5 mph 80% 0.00 in 69 W/m2
08:45 26.6 °F 21.3 °F 30.14 in NNE 4 mph 5 mph 80% 0.00 in 70 W/m2
08:50 26.7 °F 21.1 °F 30.14 in North 5 mph 6 mph 79% 0.00 in 74 W/m2
08:55 26.9 °F 21.3 °F 30.14 in NNE 5 mph 6 mph 79% 0.00 in 76 W/m2
09:00 26.9 °F 21.3 °F 30.14 in North 4 mph 6 mph 79% 0.00 in 95 W/m2
09:05 27 °F 21.4 °F 30.15 in North 4 mph 6 mph 79% 0.00 in 95 W/m2
09:10 27.2 °F 21.5 °F 30.15 in NNE 5 mph 6 mph 79% 0.00 in 97 W/m2
09:15 27.4 °F 21.4 °F 30.15 in NE 5 mph 9 mph 78% 0.00 in 97 W/m2
09:20 27.5 °F 21.5 °F 30.15 in NNW 5 mph 5 mph 78% 0.00 in 139 W/m2
09:25 27.5 °F 21.8 °F 30.15 in NNE 4 mph 9 mph 79% 0.00 in 137 W/m2
09:30 27.6 °F 21.9 °F 30.15 in NNE 4 mph 5 mph 79% 0.00 in 162 W/m2
09:35 27.7 °F 21.7 °F 30.15 in North 4 mph 5 mph 78% 0.00 in 165 W/m2
09:40 27.9 °F 21.9 °F 30.15 in NNE 4 mph 4 mph 78% 0.00 in 178 W/m2
09:45 28.2 °F 22.2 °F 30.15 in North 5 mph 5 mph 78% 0.00 in 193 W/m2
09:50 28.4 °F 22.1 °F 30.15 in NNE 4 mph 4 mph 77% 0.00 in 174 W/m2
09:55 28.4 °F 22.1 °F 30.15 in NNW 3 mph 4 mph 77% 0.00 in 153 W/m2
10:00 28.3 °F 22 °F 30.15 in NNE 4 mph 4 mph 77% 0.00 in 172 W/m2
10:05 28.4 °F 22.1 °F 30.15 in East 4 mph 6 mph 77% 0.00 in 167 W/m2
10:10 28.6 °F 22.6 °F 30.15 in North 4 mph 4 mph 78% 0.00 in 193 W/m2
10:15 28.9 °F 22.6 °F 30.15 in NNE 4 mph 4 mph 77% 0.00 in 193 W/m2
10:20 28.6 °F 22 °F 30.15 in NNE 3 mph 5 mph 76% 0.00 in 169 W/m2
10:25 28.7 °F 22.7 °F 30.15 in NW 4 mph 7 mph 78% 0.00 in 287 W/m2
10:30 28.8 °F 22.5 °F 30.15 in NNE 4 mph 4 mph 77% 0.00 in 278 W/m2
10:35 29.1 °F 22.8 °F 30.15 in NE 4 mph 4 mph 77% 0.00 in 239 W/m2
10:40 29.2 °F 22.9 °F 30.15 in ENE 4 mph 8 mph 77% 0.00 in 209 W/m2
10:45 29.1 °F 22.8 °F 30.15 in ENE 4 mph 8 mph 77% 0.00 in 271 W/m2
10:50 29.1 °F 22.8 °F 30.15 in NE 4 mph 5 mph 77% 0.00 in 246 W/m2
10:55 29 °F 22.7 °F 30.15 in ENE 4 mph 5 mph 77% 0.00 in 211 W/m2
11:00 28.8 °F 22.5 °F 30.15 in NNW 4 mph 4 mph 77% 0.00 in 234 W/m2
11:05 28.8 °F 22.5 °F 30.15 in NE 4 mph 4 mph 77% 0.00 in 211 W/m2
11:10 28.7 °F 22.7 °F 30.15 in NNE 5 mph 10 mph 78% 0.00 in 246 W/m2
11:15 28.7 °F 22.4 °F 30.15 in NNE 5 mph 10 mph 77% 0.00 in 257 W/m2
11:20 28.7 °F 22.4 °F 30.15 in NNE 4 mph 9 mph 77% 0.00 in 227 W/m2
11:25 28.7 °F 22.4 °F 30.15 in NE 5 mph 9 mph 77% 0.00 in 260 W/m2
11:30 28.6 °F 22.3 °F 30.15 in ENE 6 mph 6 mph 77% 0.00 in 229 W/m2
11:35 28.7 °F 22.4 °F 30.15 in NNE 6 mph 8 mph 77% 0.00 in 260 W/m2
11:40 28.7 °F 22.7 °F 30.15 in North 6 mph 6 mph 78% 0.00 in 248 W/m2
11:45 28.8 °F 22.8 °F 30.15 in NE 6 mph 6 mph 78% 0.00 in 265 W/m2
11:50 28.7 °F 22.7 °F 30.14 in ENE 5 mph 8 mph 78% 0.00 in 244 W/m2
11:55 28.9 °F 23.2 °F 30.14 in NNW 5 mph 8 mph 79% 0.00 in 269 W/m2
12:00 29 °F 23.3 °F 30.14 in North 5 mph 8 mph 79% 0.00 in 274 W/m2
12:05 29.1 °F 23.1 °F 30.14 in North 5 mph 8 mph 78% 0.00 in 290 W/m2
12:10 29.4 °F 23.4 °F 30.14 in East 5 mph 5 mph 78% 0.00 in 281 W/m2
12:15 29.4 °F 23.4 °F 30.14 in NNE 4 mph 5 mph 78% 0.00 in 302 W/m2
12:20 29.4 °F 23.4 °F 30.14 in NNE 5 mph 9 mph 78% 0.00 in 292 W/m2
12:25 29.2 °F 23.2 °F 30.14 in North 5 mph 9 mph 78% 0.00 in 292 W/m2
12:30 29.3 °F 23 °F 30.14 in North 5 mph 5 mph 77% 0.00 in 302 W/m2
12:35 29.4 °F 23.1 °F 30.14 in NNE 5 mph 5 mph 77% 0.00 in 369 W/m2
12:40 29.5 °F 23.5 °F 30.14 in North 5 mph 9 mph 78% 0.00 in 302 W/m2
12:45 29.4 °F 23.1 °F 30.14 in ENE 5 mph 9 mph 77% 0.00 in 374 W/m2
12:50 29.7 °F 23.4 °F 30.14 in NE 5 mph 5 mph 77% 0.00 in 336 W/m2
12:55 29.7 °F 23.4 °F 30.14 in ENE 5 mph 5 mph 77% 0.00 in 381 W/m2
13:00 29.7 °F 23.4 °F 30.13 in NNE 5 mph 5 mph 77% 0.00 in 272 W/m2
13:05 29.7 °F 23.4 °F 30.13 in NNE 5 mph 5 mph 77% 0.00 in 338 W/m2
13:10 29.6 °F 23.3 °F 30.13 in NNE 5 mph 5 mph 77% 0.00 in 227 W/m2
13:15 29.5 °F 22.9 °F 30.13 in East 5 mph 5 mph 76% 0.00 in 548 W/m2
13:20 29.6 °F 23.3 °F 30.13 in NNE 4 mph 5 mph 77% 0.00 in 338 W/m2
13:35 30.5 °F 24.1 °F 30.12 in NE 3 mph 4 mph 77% 0.00 in 262 W/m2
13:40 29.9 °F 23.9 °F 30.12 in NNE 5 mph 5 mph 78% 0.00 in 272 W/m2
13:45 29.6 °F 23.6 °F 30.12 in North 5 mph 5 mph 78% 0.00 in 269 W/m2
13:50 30 °F 24 °F 30.12 in North 4 mph 5 mph 78% 0.00 in 244 W/m2
13:55 29.6 °F 23.9 °F 30.12 in North 4 mph 4 mph 79% 0.00 in 269 W/m2
14:00 29.3 °F 23.3 °F 30.12 in NNE 5 mph 5 mph 78% 0.00 in 281 W/m2
14:05 29.3 °F 23.6 °F 30.12 in NNE 6 mph 6 mph 79% 0.00 in 454 W/m2
14:10 29.4 °F 23.4 °F 30.12 in NNW 5 mph 5 mph 78% 0.00 in 279 W/m2
14:15 29.4 °F 23.4 °F 30.12 in NNW 5 mph 5 mph 78% 0.00 in 281 W/m2
14:20 29.2 °F 23.2 °F 30.11 in North 5 mph 5 mph 78% 0.00 in 244 W/m2
14:25 29.2 °F 22.9 °F 30.12 in ENE 5 mph 5 mph 77% 0.00 in 274 W/m2
14:30 29.2 °F 23.5 °F 30.12 in North 5 mph 7 mph 79% 0.00 in 262 W/m2
14:35 29.2 °F 23.8 °F 30.12 in North 5 mph 7 mph 80% 0.00 in 209 W/m2
14:40 28.8 °F 23.7 °F 30.12 in East 5 mph 9 mph 81% 0.00 in 199 W/m2
14:45 28.7 °F 23.6 °F 30.12 in NNE 6 mph 9 mph 81% 0.00 in 174 W/m2
14:50 28.5 °F 23.4 °F 30.12 in North 6 mph 6 mph 81% 0.00 in 218 W/m2
14:55 28.7 °F 23.3 °F 30.12 in NNE 5 mph 8 mph 80% 0.00 in 195 W/m2
15:00 28.5 °F 23.4 °F 30.12 in NNW 5 mph 10 mph 81% 0.00 in 176 W/m2
15:05 28.4 °F 23.6 °F 30.12 in North 6 mph 10 mph 82% 0.00 in 169 W/m2
15:10 28 °F 23.2 °F 30.12 in NNE 6 mph 10 mph 82% 0.00 in 149 W/m2
15:15 27.8 °F 23.3 °F 30.12 in NNE 6 mph 10 mph 83% 0.00 in 176 W/m2
15:20 27.9 °F 23.4 °F 30.12 in NNW 6 mph 6 mph 83% 0.00 in 148 W/m2
15:25 27.8 °F 23.3 °F 30.12 in NW 6 mph 8 mph 83% 0.00 in 121 W/m2
15:30 27.6 °F 23.1 °F 30.12 in ENE 5 mph 5 mph 83% 0.00 in 120 W/m2
15:35 27.7 °F 23.2 °F 30.12 in North 5 mph 6 mph 83% 0.00 in 156 W/m2
15:40 27.7 °F 23.2 °F 30.12 in NNW 5 mph 5 mph 83% 0.00 in 139 W/m2
15:45 27.5 °F 23 °F 30.12 in NNW 5 mph 11 mph 83% 0.00 in 130 W/m2
15:50 27.3 °F 22.8 °F 30.12 in NE 5 mph 5 mph 83% 0.00 in 128 W/m2
15:55 27.2 °F 23 °F 30.12 in North 5 mph 8 mph 84% 0.00 in 125 W/m2
16:00 27.1 °F 22.9 °F 30.12 in North 5 mph 6 mph 84% 0.00 in 84 W/m2
16:05 26.8 °F 22.6 °F 30.12 in North 5 mph 9 mph 84% 0.00 in 95 W/m2
16:10 26.7 °F 22.5 °F 30.12 in NNW 6 mph 6 mph 84% 0.00 in 63 W/m2
16:15 26.7 °F 22.5 °F 30.12 in NE 5 mph 6 mph 84% 0.00 in 70 W/m2
16:20 26.5 °F 22.3 °F 30.12 in North 5 mph 10 mph 84% 0.00 in 60 W/m2
16:25 26.4 °F 22.2 °F 30.13 in North 6 mph 10 mph 84% 0.00 in 62 W/m2
16:30 26.4 °F 22.2 °F 30.13 in NNW 5 mph 5 mph 84% 0.00 in 54 W/m2
16:35 26.3 °F 22.1 °F 30.13 in NNE 4 mph 5 mph 84% 0.00 in 53 W/m2
16:40 26.1 °F 21.9 °F 30.13 in North 4 mph 4 mph 84% 0.00 in 46 W/m2
16:45 26 °F 21.8 °F 30.14 in NNE 5 mph 5 mph 84% 0.00 in 39 W/m2
16:50 25.9 °F 21.7 °F 30.14 in North 5 mph 5 mph 84% 0.00 in 42 W/m2
16:55 25.8 °F 21.6 °F 30.14 in NW 5 mph 5 mph 84% 0.00 in 32 W/m2
17:00 25.7 °F 21.8 °F 30.14 in North 5 mph 5 mph 85% 0.00 in 32 W/m2
17:05 25.6 °F 21.4 °F 30.14 in North 5 mph 6 mph 84% 0.00 in 28 W/m2
17:10 25.5 °F 21.3 °F 30.14 in NNE 5 mph 5 mph 84% 0.00 in 26 W/m2
17:15 25.4 °F 21.2 °F 30.14 in NNW 5 mph 8 mph 84% 0.00 in 21 W/m2
17:20 25.3 °F 21.1 °F 30.14 in NNW 5 mph 13 mph 84% 0.00 in 16 W/m2
17:25 25.3 °F 21.1 °F 30.14 in North 5 mph 13 mph 84% 0.00 in 12 W/m2
17:30 25.3 °F 21.1 °F 30.14 in NNW 5 mph 5 mph 84% 0.00 in 14 W/m2
17:35 25.2 °F 21 °F 30.14 in NNW 5 mph 5 mph 84% 0.00 in 7 W/m2
17:40 25.1 °F 20.9 °F 30.15 in NNE 6 mph 6 mph 84% 0.00 in 7 W/m2
17:45 25 °F 20.8 °F 30.14 in NNW 5 mph 6 mph 84% 0.00 in 0 W/m2
17:50 25 °F 20.8 °F 30.15 in North 4 mph 4 mph 84% 0.00 in 0 W/m2
17:55 25 °F 20.8 °F 30.15 in NNE 5 mph 5 mph 84% 0.00 in 5 W/m2
18:00 25 °F 20.8 °F 30.15 in NNE 4 mph 4 mph 84% 0.00 in 0 W/m2
18:05 24.9 °F 20.8 °F 30.15 in NNE 5 mph 5 mph 84% 0.00 in 0 W/m2
18:10 24.7 °F 20.3 °F 30.15 in NE 4 mph 4 mph 83% 0.00 in 0 W/m2
18:15 24.6 °F 20.2 °F 30.15 in NNE 4 mph 4 mph 83% 0.00 in 0 W/m2
18:20 24.5 °F 20.1 °F 30.15 in NE 3 mph 4 mph 83% 0.00 in 0 W/m2
18:25 24.5 °F 20.1 °F 30.15 in NE 4 mph 4 mph 83% 0.00 in 0 W/m2
18:30 24.4 °F 20 °F 30.15 in ENE 4 mph 4 mph 83% 0.00 in 0 W/m2
18:35 24.4 °F 20 °F 30.15 in NNE 4 mph 4 mph 83% 0.00 in 0 W/m2
18:40 24.4 °F 20 °F 30.15 in North 4 mph 4 mph 83% 0.00 in 0 W/m2
18:45 24.3 °F 19.9 °F 30.15 in NNW 5 mph 6 mph 83% 0.00 in 0 W/m2
18:50 24.3 °F 19.9 °F 30.15 in NNE 4 mph 4 mph 83% 0.00 in 0 W/m2
18:55 24.3 °F 19.9 °F 30.16 in NNE 4 mph 5 mph 83% 0.00 in 0 W/m2
19:00 24.3 °F 19.9 °F 30.16 in NNE 4 mph 5 mph 83% 0.00 in 0 W/m2
19:05 24.3 °F 19.9 °F 30.16 in NNE 3 mph 5 mph 83% 0.00 in 0 W/m2
19:10 24.2 °F 19.8 °F 30.16 in North 3 mph 3 mph 83% 0.00 in 0 W/m2
19:15 24.3 °F 19.9 °F 30.16 in NE 3 mph 4 mph 83% 0.00 in 0 W/m2
19:20 24.2 °F 19.8 °F 30.16 in ENE 4 mph 4 mph 83% 0.00 in 0 W/m2
19:25 24.2 °F 19.5 °F 30.16 in NE 4 mph 5 mph 82% 0.00 in 0 W/m2
19:30 24.2 °F 19.5 °F 30.16 in North 3 mph 3 mph 82% 0.00 in 0 W/m2
19:35 24.3 °F 19.6 °F 30.16 in NE 4 mph 6 mph 82% 0.00 in 0 W/m2
19:40 24.2 °F 19.5 °F 30.16 in NNE 3 mph 3 mph 82% 0.00 in 0 W/m2
19:45 24.3 °F 19.6 °F 30.16 in NNE 3 mph 3 mph 82% 0.00 in 0 W/m2
19:50 24.2 °F 19.2 °F 30.16 in NE 4 mph 6 mph 81% 0.00 in 0 W/m2
19:55 24.2 °F 19.2 °F 30.16 in East 4 mph 6 mph 81% 0.00 in 0 W/m2
20:00 24.2 °F 19.2 °F 30.16 in NNE 4 mph 4 mph 81% 0.00 in 0 W/m2
20:05 24.2 °F 19.2 °F 30.16 in NNW 4 mph 4 mph 81% 0.00 in 0 W/m2
20:10 24.2 °F 18.9 °F 30.16 in NE 4 mph 4 mph 80% 0.00 in 0 W/m2
20:15 24.2 °F 18.9 °F 30.16 in North 4 mph 6 mph 80% 0.00 in 0 W/m2
20:20 24.3 °F 19 °F 30.16 in NNW 3 mph 10 mph 80% 0.00 in 0 W/m2
20:25 24.2 °F 18.9 °F 30.16 in North 4 mph 10 mph 80% 0.00 in 0 W/m2
20:30 24.3 °F 19 °F 30.16 in North 4 mph 4 mph 80% 0.00 in 0 W/m2
20:35 24.3 °F 19 °F 30.16 in North 4 mph 4 mph 80% 0.00 in 0 W/m2
20:40 24.3 °F 19.3 °F 30.16 in NNW 4 mph 9 mph 81% 0.00 in 0 W/m2
20:45 24.3 °F 19 °F 30.16 in North 4 mph 9 mph 80% 0.00 in 0 W/m2
20:50 24.3 °F 18.7 °F 30.16 in NNW 4 mph 4 mph 79% 0.00 in 0 W/m2
20:55 24.2 °F 18.6 °F 30.16 in NNW 4 mph 4 mph 79% 0.00 in 0 W/m2
21:00 24 °F 18.4 °F 30.16 in NW 4 mph 4 mph 79% 0.00 in 0 W/m2
21:05 23.9 °F 18.3 °F 30.16 in NNW 5 mph 6 mph 79% 0.00 in 0 W/m2
21:10 23.8 °F 18.2 °F 30.16 in NNE 6 mph 11 mph 79% 0.00 in 0 W/m2
21:15 23.7 °F 18.1 °F 30.16 in NNE 5 mph 11 mph 79% 0.00 in 0 W/m2
21:20 23.6 °F 17.7 °F 30.16 in NNW 5 mph 5 mph 78% 0.00 in 0 W/m2
21:25 23.5 °F 17.6 °F 30.16 in North 5 mph 11 mph 78% 0.00 in 0 W/m2
21:30 23.4 °F 17.8 °F 30.16 in NNW 5 mph 5 mph 79% 0.00 in 0 W/m2
21:35 23.3 °F 17.7 °F 30.16 in North 5 mph 5 mph 79% 0.00 in 0 W/m2
21:40 23.3 °F 18 °F 30.16 in North 5 mph 6 mph 80% 0.00 in 0 W/m2
21:45 23.2 °F 17.9 °F 30.16 in NNW 5 mph 6 mph 80% 0.00 in 0 W/m2
21:50 23.1 °F 17.8 °F 30.16 in North 5 mph 5 mph 80% 0.00 in 0 W/m2
21:55 23.1 °F 17.8 °F 30.16 in NNE 5 mph 5 mph 80% 0.00 in 0 W/m2
22:00 23 °F 17.7 °F 30.16 in North 5 mph 5 mph 80% 0.00 in 0 W/m2
22:05 22.9 °F 17.7 °F 30.16 in NNW 5 mph 5 mph 80% 0.00 in 0 W/m2
22:10 22.9 °F 17.7 °F 30.16 in NNE 4 mph 10 mph 80% 0.00 in 0 W/m2
22:15 22.8 °F 17.6 °F 30.15 in NW 4 mph 10 mph 80% 0.00 in 0 W/m2
22:20 22.8 °F 17.6 °F 30.16 in NNW 5 mph 5 mph 80% 0.00 in 0 W/m2
22:25 22.8 °F 17.6 °F 30.15 in NNW 5 mph 5 mph 80% 0.00 in 0 W/m2
22:30 22.8 °F 17.6 °F 30.15 in North 5 mph 5 mph 80% 0.00 in 0 W/m2
22:35 22.8 °F 17.6 °F 30.15 in NNE 5 mph 5 mph 80% 0.00 in 0 W/m2
22:40 22.9 °F 17.7 °F 30.15 in NNW 6 mph 6 mph 80% 0.00 in 0 W/m2
22:45 23 °F 17.7 °F 30.15 in North 6 mph 6 mph 80% 0.00 in 0 W/m2
22:50 23 °F 17.7 °F 30.15 in NNW 5 mph 5 mph 80% 0.00 in 0 W/m2
22:55 23 °F 17.7 °F 30.15 in NNW 5 mph 10 mph 80% 0.00 in 0 W/m2
23:00 23.1 °F 17.8 °F 30.15 in North 5 mph 5 mph 80% 0.00 in 0 W/m2
23:05 23.1 °F 17.8 °F 30.15 in North 5 mph 5 mph 80% 0.00 in 0 W/m2
23:10 23.2 °F 17.9 °F 30.15 in NNW 5 mph 5 mph 80% 0.00 in 0 W/m2
23:15 23.2 °F 17.9 °F 30.15 in North 5 mph 6 mph 80% 0.00 in 0 W/m2
23:20 23.3 °F 18 °F 30.15 in NNW 5 mph 5 mph 80% 0.00 in 0 W/m2
23:25 23.3 °F 18 °F 30.15 in NNW 5 mph 5 mph 80% 0.00 in 0 W/m2
23:30 23.3 °F 18 °F 30.15 in North 5 mph 5 mph 80% 0.00 in 0 W/m2
23:35 23.3 °F 18 °F 30.15 in North 5 mph 5 mph 80% 0.00 in 0 W/m2
23:40 23.3 °F 18 °F 30.15 in NNE 5 mph 11 mph 80% 0.00 in 0 W/m2
23:45 23.4 °F 18.1 °F 30.15 in NW 5 mph 11 mph 80% 0.00 in 0 W/m2
23:50 23.4 °F 18.1 °F 30.15 in NNW 5 mph 5 mph 80% 0.00 in 0 W/m2
23:55 23.4 °F 18.1 °F 30.15 in NNW 4 mph 5 mph 80% 0.00 in 0 W/m2
Sand Point, Michigan, USA
Compliments of Weather Underground - 2 mb